Content
SEND FEEDBACK

Daily
Averages
Monthly
Summary
United States of America

SUNDERLAND, MASSACHUSETTS


Home > North America > United States > Massachusetts
Elevation: 240 feet     Latitude: 42 27N     Longitude: 072 33W

WEATHER
 
SELECT A DAY
Number of Records: 217,706;   Date Range: 7/1/96 - 12/20/14
 
SHARE

PRINT THIS DATA

[ ← Previous Day ]
WEATHER ALMANAC - JULY 30, 2014
[ Next Day → ]
[ °C ]   °F
Weather ElementAverageHighLow
Temperature64.5 °F75 °F (11:52 am)55.9 °F (1:52 am)
Dewpoint54 °F57.9 °F (10:52 pm)46.9 °F (2:52 pm)
Humidity73.2 %97 % (12:52 am)38 % (12:52 pm)
Barometer30.01 in30.05 in (7:52 am)29.97 in (12:52 am)
Wind Speed1.9 mph6.9 mph (8:52 am)
Weather ElementAverage
Visibility10 mi
Wind DirectionENE (66.7 °)

Weather ElementTotal
Precipitation---
Cooling Degree Days0.5 (Base 65)
Growing Degree Days15.5 (Base 50)
Averaged from 21 records on July 30, 2014
WEATHER CONDITIONS BREAKOUT
WIND DIRECTION BREAKOUT
WEATHER BY HOUR - JULY 30, 2014
[ °C ]   °F
Local TimeTemperatureDewpointHumidityBarometerVisibilityWind DirectionWind SpeedGust SpeedPrecipitationEventsConditions
12:52 AM55.9 °F54.0 °F93 %29.97 in10.0 miCalmScattered Clouds
1:31 AM55.9 °F55.0 °F97 %29.98 in10.0 miCalmOvercast
2:52 AM57.0 °F55.0 °F93 %29.98 in10.0 miCalmOvercast
3:52 AM57.0 °F55.0 °F93 %29.97 in10.0 miCalmOvercast
4:52 AM55.9 °F55.0 °F97 %29.99 in10.0 miCalmOvercast
5:52 AM57.0 °F55.0 °F93 %30.00 in10.0 miCalmOvercast
6:52 AM57.9 °F55.9 °F93 %30.01 in10.0 miCalmOvercast
7:52 AM59.0 °F55.9 °F90 %30.03 in10.0 miCalmOvercast
8:52 AM62.1 °F57.0 °F84 %30.03 in10.0 miCalmOvercast
9:52 AM66.0 °F57.0 °F73 %30.03 in10.0 miCalmMostly Cloudy
10:52 AM71.1 °F55.9 °F59 %30.02 in10.0 miVariable3.5 mphOvercast
11:52 AM73.0 °F54.0 °F51 %30.01 in10.0 miSSE (160°)3.5 mphScattered Clouds
1:52 PM75.0 °F50.0 °F41 %29.99 in10.0 miVariable3.5 mphPartly Cloudy
2:52 PM73.0 °F52.0 °F48 %29.99 in10.0 miWNW (290°)5.8 mphOvercast
3:52 PM73.9 °F46.9 °F38 %29.99 in10.0 miWSW (250°)5.8 mphPartly Cloudy
4:52 PM75.0 °F48.9 °F40 %29.99 in10.0 miWSW (240°)6.9 mphClear
5:52 PM75.0 °F50.0 °F41 %30.00 in10.0 miSW (230°)6.9 mphPartly Cloudy
6:52 PM73.9 °F51.1 °F45 %30.01 in10.0 miSW (230°)4.6 mphClear
8:52 PM62.1 °F57.9 °F86 %30.03 in10.0 miCalmClear
9:52 PM60.1 °F57.0 °F90 %30.04 in10.0 miCalmClear
10:52 PM57.9 °F55.9 °F93 %30.05 in10.0 miCalmClear
Hourly data recorded from KORE, located miles away from Sunderland, Massachusetts







STORIES FROM OUR PARTNERS